{"data":{"norad_id":60562,"epoch":"2026-05-24T22:41:54.926304Z","epoch_age_seconds":86537,"freshness":"FRESH","line1":"1 60562U 24149CY  26144.94577461  .00005987  00000+0  20425-3 0  9993","line2":"2 60562  97.3798 225.2305 0006059  47.5693 312.6060 15.30700008 98488","mean_motion":15.30700008,"eccentricity":0.0006059,"inclination_deg":97.3798,"raan_deg":225.2305,"arg_perigee_deg":47.5693,"mean_anomaly_deg":312.606,"bstar":0.00020425,"rev_number":9848,"period_min":94.074605897565,"perigee_km":469.57100036953,"apogee_km":477.8740837626,"semimajor_km":6851.8595420661,"source":"CELESTRAK","updated_at":"2026-05-25T13:38:02.154793Z"}}